This is the latest recevied weather packets stored in our database for station/object W0CHP-13. If no packets are shown the sender has not sent any weather packets the latest 10 day(s).
| Time | Temp. | Humidity | Pressure | Rain* | Wind** | Luminosity | Snow |
|---|---|---|---|---|---|---|---|
| 1778110996 | 8.89° C | 39% | 1013.9 hPa | 0 mm | - | 98 W/m² | - |
| 1778110397 | 8.89° C | 40% | 1014.1 hPa | 0 mm | - | 106 W/m² | - |
| 1778109796 | 8.89° C | 39% | 1014.1 hPa | 0 mm | - | 97 W/m² | - |
| 1778109198 | 8.89° C | 39% | 1014.1 hPa | 0 mm | - | 94 W/m² | - |
| 1778108596 | 8.89° C | 38% | 1014.1 hPa | 0 mm | - | 127 W/m² | - |
| 1778107998 | 8.89° C | 39% | 1014.1 hPa | 0 mm | - | 128 W/m² | - |
| 1778107396 | 8.89° C | 37% | 1014.1 hPa | 0 mm | - | 128 W/m² | - |
| 1778106798 | 8.89° C | 38% | 1014.1 hPa | 0 mm | - | 138 W/m² | - |
| 1778106196 | 8.89° C | 37% | 1014.1 hPa | 0 mm | - | 130 W/m² | - |
| 1778105598 | 8.89° C | 39% | 1014.1 hPa | 0 mm | - | 132 W/m² | - |
| 1778104997 | 9.44° C | 38% | 1014.3 hPa | 0 mm | - | 131 W/m² | - |
| 1778104395 | 9.44° C | 38% | 1014.4 hPa | 0 mm | - | 159 W/m² | - |
| 1778103797 | 8.89° C | 37% | 1014.4 hPa | 0 mm | - | 179 W/m² | - |
| 1778103195 | 8.89° C | 38% | 1014.4 hPa | 0 mm | - | 143 W/m² | - |
| 1778102598 | 8.89° C | 38% | 1014.4 hPa | 0 mm | - | 138 W/m² | - |
| 1778101996 | 8.89° C | 38% | 1014.2 hPa | 0 mm | - | 136 W/m² | - |
| 1778101399 | 8.89° C | 38% | 1014.6 hPa | 0 mm | - | 137 W/m² | - |
| 1778100796 | 8.89° C | 38% | 1014.4 hPa | 0 mm | - | 144 W/m² | - |
| 1778100198 | 8.89° C | 38% | 1014.4 hPa | 0 mm | - | 141 W/m² | - |
| 1778099596 | 8.89° C | 37% | 1014.5 hPa | 0 mm | - | 156 W/m² | - |
| 1778098998 | 8.89° C | 37% | 1014.6 hPa | 0 mm | - | 166 W/m² | - |
| 1778098396 | 8.89° C | 35% | 1014.5 hPa | 0 mm | - | 169 W/m² | - |
| 1778097799 | 8.89° C | 36% | 1014.4 hPa | 0 mm | - | 197 W/m² | - |
| 1778097197 | 8.89° C | 38% | 1014.6 hPa | 0 mm | - | 208 W/m² | - |
| 1778096595 | 8.89° C | 37% | 1014.8 hPa | 0 mm | - | 179 W/m² | - |
* Rain latest hour (hover to see other rain measurements)
** Current wind speed in m/s (hover to see current wind gust speed)